Blountville, TN

7:54 PM EST on February 19, 2017 (GMT -0500)
Tri-Cities Regional Tennessee / Virginia

Weather History for KTRI - May, 2013

Change the Weather History Date:

Thursday, May 9, 2013

  Actual Average Record
Temperature  
Mean Temperature 64 °F 62 °F  
Max Temperature 76 °F 74 °F 88 °F (1963)
Min Temperature 51 °F 49 °F 30 °F (1947)
Degree Days  
Heating Degree Days 1 5  
Month to date heating degree days 51 48  
Since 1 July heating degree days 4252 4302  
Cooling Degree Days 0 1  
Month to date cooling degree days 0 9  
Year to date cooling degree days 6 20  
Growing Degree Days 13 (Base 50)    
Moisture  
Dew Point 54 °F    
Average Humidity 73    
Maximum Humidity 100    
Minimum Humidity 46    
Precipitation  
Precipitation 0.01 in 0.12 in 1.06 in (2003)
Month to date precipitation 1.05 1.06  
Year to date precipitation 21.65 14.65  
Snow  
Snow 0.00 in 0.00 in - ()
Month to date snowfall 0.0 0.0  
Since 1 July snowfall 9.2 13.3  
Snow Depth 0.00 in    
Sea Level Pressure  
Sea Level Pressure 30.07 in    
Wind  
Wind Speed 2 mph (SSW)    
Max Wind Speed 15 mph    
Max Gust Speed 21 mph    
Visibility 4 miles    
Events Fog , Rain , Thunderstorm    
T = Trace of Precipitation, MM = Missing Value Source: NWS Daily Summary

Daily Weather History Graph

Daily Weather History Graph

Search for Another Location

Airport or City:

Trip Planner

Search our weather history database for the weather conditions in past years. The results will help you decide how hot, cold, wet, or windy it might be!

Date:

Astronomy

May. 09, 2013 Rise Set
Actual Time 6:27 AM EDT 8:24 PM EDT
Civil Twilight 5:59 AM EDT 8:53 PM EDT
Nautical Twilight 5:25 AM EDT 9:27 PM EDT
Astronomical Twilight 4:48 AM EDT 10:04 PM EDT
Moon 6:10 AM EDT (5/9) 8:18 PM EDT (5/9)
Length of Visible Light 14h 53m
Length of Day
13h 56m
Waning Crescent, 0% of the Moon is Illuminated
May 9
Waning Crescent
May 9
New
May 18
First Quarter
May 25
Full
May 31
Last Quarter

Hourly Weather History & Observations

Time (EDT) Temp. Dew Point Humidity Pressure Visibility Wind Dir Wind Speed Gust Speed Precip Events Conditions
12:06 AM 53.1 °F 52.0 °F 96% 30.07 in 1.2 mi Calm Calm - N/A   Partly Cloudy
12:13 AM 51.1 °F 50.0 °F 96% 30.07 in 3.0 mi Calm Calm - N/A   Partly Cloudy
12:36 AM 51.1 °F 51.1 °F 100% 30.06 in 0.2 mi Calm Calm - N/A Fog Fog
12:53 AM 52.0 °F 50.0 °F 93% 30.02 in 0.2 mi Calm Calm - N/A Fog Fog
1:53 AM 52.0 °F 51.1 °F 97% 30.02 in 0.2 mi Calm Calm - N/A Fog Fog
2:53 AM 52.0 °F 51.1 °F 97% 30.01 in 0.2 mi Calm Calm - N/A Fog Fog
3:13 AM 52.0 °F 51.1 °F 97% 30.05 in 0.5 mi Calm Calm - N/A Fog Fog
3:20 AM 51.1 °F 51.1 °F 100% 30.05 in 0.2 mi Calm Calm - N/A Fog Fog
3:53 AM 52.0 °F 51.1 °F 97% 30.00 in 0.2 mi Calm Calm - N/A Fog Fog
4:53 AM 51.1 °F 51.1 °F 100% 30.01 in 0.2 mi Calm Calm - N/A Fog Fog
5:53 AM 52.0 °F 52.0 °F 100% 30.04 in 0.2 mi Calm Calm - N/A Fog Fog
6:53 AM 53.1 °F 52.0 °F 96% 30.06 in 0.2 mi Calm Calm - N/A Fog Fog
7:06 AM 53.1 °F 52.0 °F 96% 30.11 in 0.1 mi Calm Calm - N/A Fog Fog
7:53 AM 53.1 °F 53.1 °F 100% 30.07 in 0.1 mi Calm Calm - N/A Fog Fog
8:11 AM 53.1 °F 53.1 °F 100% 30.12 in 0.2 mi WSW 3.5 mph - N/A Fog Fog
8:53 AM 54.0 °F 53.1 °F 97% 30.09 in 0.2 mi Calm Calm - N/A Fog Fog
9:13 AM 54.0 °F 53.1 °F 97% 30.14 in 0.5 mi Calm Calm - N/A   Overcast
9:53 AM 55.0 °F 54.0 °F 96% 30.10 in 1.0 mi Calm Calm - N/A   Overcast
10:23 AM 55.9 °F 55.0 °F 97% 30.14 in 1.5 mi Calm Calm - N/A   Overcast
10:28 AM 57.0 °F 55.0 °F 93% 30.14 in 2.5 mi Calm Calm - N/A   Overcast
10:53 AM 61.0 °F 55.9 °F 83% 30.10 in 2.5 mi Calm Calm - N/A   Haze
11:04 AM 62.1 °F 55.9 °F 80% 30.14 in 10.0 mi Calm Calm - N/A   Scattered Clouds
11:53 AM 64.9 °F 57.0 °F 75% 30.09 in 10.0 mi Variable 3.5 mph - N/A   Mostly Cloudy
12:53 PM 71.1 °F 57.9 °F 63% 30.09 in 10.0 mi Calm Calm - N/A   Mostly Cloudy
1:53 PM 73.9 °F 55.9 °F 53% 30.07 in 10.0 mi Variable 3.5 mph - N/A   Mostly Cloudy
2:53 PM 75.0 °F 54.0 °F 48% 30.05 in 10.0 mi SSW 12.7 mph - N/A   Scattered Clouds
3:53 PM 73.9 °F 54.0 °F 50% 30.03 in 10.0 mi South 9.2 mph - N/A Thunderstorm Thunderstorm
4:53 PM 62.1 °F 57.0 °F 84% 30.05 in 8.0 mi North 5.8 mph - 0.01 in Rain , Thunderstorm Light Thunderstorms and Rain
5:22 PM 62.1 °F 55.9 °F 80% 30.09 in 10.0 mi Calm Calm - 0.00 in   Mostly Cloudy
5:53 PM 64.0 °F 57.9 °F 80% 30.04 in 10.0 mi East 3.5 mph - 0.00 in   Mostly Cloudy
6:53 PM 66.0 °F 57.0 °F 73% 30.02 in 10.0 mi Calm Calm - N/A   Scattered Clouds
7:53 PM 64.0 °F 57.9 °F 80% 30.03 in 10.0 mi Calm Calm - N/A   Mostly Cloudy
8:53 PM 61.0 °F 57.0 °F 87% 30.04 in 10.0 mi Calm Calm - N/A   Mostly Cloudy
9:53 PM 57.9 °F 55.9 °F 93% 30.06 in 5.0 mi Calm Calm - N/A   Scattered Clouds
10:53 PM 57.0 °F 55.9 °F 96% 30.06 in 6.0 mi Calm Calm - N/A   Mostly Cloudy
11:53 PM 55.9 °F 55.0 °F 97% 30.05 in 5.0 mi Calm Calm - N/A   Mostly Cloudy